Change the Weather History Date:

Sunday, February 12, 2012

  Actual Average Record
Temperature  
Mean Temperature 22 °F -  
Max Temperature 35 °F 38 °F 57 °F (2011)
Min Temperature 10 °F 17 °F -4 °F (2004)
Degree Days  
Heating Degree Days 42    
Moisture  
Dew Point 11 °F    
Average Humidity 65    
Maximum Humidity 84    
Minimum Humidity 41    
Precipitation  
Precipitation 0.00 in - - ()
Sea Level Pressure  
Sea Level Pressure 29.99 in    
Wind  
Wind Speed 11 mph (South)    
Max Wind Speed 21 mph    
Max Gust Speed 29 mph    
Visibility 10 miles    
Events      
Averages and records for this station are not official NWS values.
T = Trace of Precipitation, MM = Missing Value Source: NWS Daily Summary

Daily Weather History Graph

Daily Weather History Graph

Search for Another Location

Airport or City:

Trip Planner

Search our weather history database for the weather conditions in past years. The results will help you decide how hot, cold, wet, or windy it might be!

Date:

Astronomy

Feb. 12, 2012 Rise Set
Actual Time 6:56 AM MST 5:17 PM MST
Civil Twilight 6:26 AM MST 5:47 PM MST
Nautical Twilight 5:52 AM MST 6:21 PM MST
Astronomical Twilight 5:19 AM MST 6:54 PM MST
Moon 11:34 PM MST (2/12) 9:01 AM MST (2/12)
Length of Visible Light 11h 20m
Length of Day
10h 20m
Waning Gibbous, 71% of the Moon is Illuminated
Feb 12
Waning Gibbous
Feb 14
Last Quarter
Feb 21
New
Feb 29
First Quarter
Mar 8
Full

Hourly Weather History & Observations

Time (MST) Temp. Windchill Dew Point Humidity Pressure Visibility Wind Dir Wind Speed Gust Speed Precip Events Conditions
12:55 AM 11.7 °F -3.2 °F 7.3 °F 83% 30.30 in 10.0 mi SE 12.7 mph - N/A   Clear
1:55 AM 10.8 °F -6.2 °F 6.6 °F 83% 30.26 in 10.0 mi SSE 16.1 mph - N/A   Clear
2:55 AM 10.9 °F -7.5 °F 6.8 °F 83% 30.20 in 10.0 mi SSE 19.6 mph - N/A   Clear
3:55 AM 11.3 °F -7.4 °F 6.8 °F 82% 30.17 in 10.0 mi South 20.7 mph 28.8 mph N/A   Clear
4:55 AM 10.8 °F -3.6 °F 6.6 °F 83% 30.16 in 10.0 mi South 11.5 mph - N/A   Clear
5:55 AM 11.3 °F 1.9 °F 7.2 °F 83% 30.15 in 10.0 mi South 5.8 mph - N/A   Clear
6:55 AM 11.1 °F -3.2 °F 7.2 °F 84% 30.13 in 10.0 mi South 11.5 mph - N/A   Clear
7:55 AM 12.2 °F 6.1 °F 7.9 °F 83% 30.12 in 10.0 mi SSE 3.5 mph - N/A   Clear
8:55 AM 16.7 °F 3.8 °F 10.9 °F 78% 30.09 in 10.0 mi South 11.5 mph - N/A   Clear
9:55 AM 21.0 °F 12.4 °F 13.5 °F 73% 30.05 in 10.0 mi SW 6.9 mph - N/A   Clear
10:55 AM 26.2 °F 13.4 °F 14.0 °F 60% 30.01 in 10.0 mi South 17.3 mph - N/A   Clear
11:55 AM 30.6 °F 21.8 °F 13.6 °F 50% 29.96 in 10.0 mi South 10.4 mph 18.4 mph N/A   Clear
12:55 PM 33.4 °F 27.3 °F 13.6 °F 44% 29.92 in 10.0 mi SE 6.9 mph - N/A   Clear
1:55 PM 35.2 °F 31.2 °F 13.6 °F 41% 29.90 in 10.0 mi ESE 4.6 mph - N/A   Clear
2:55 PM 35.2 °F - 13.8 °F 41% 29.89 in 10.0 mi Calm Calm - N/A   Clear
3:55 PM 32.9 °F 26.7 °F 14.5 °F 47% 29.88 in 10.0 mi NNW 6.9 mph - N/A   Mostly Cloudy
4:55 PM 32.5 °F 26.2 °F 14.0 °F 46% 29.87 in 10.0 mi North 6.9 mph - N/A   Overcast
5:55 PM 29.3 °F 22.3 °F 13.5 °F 52% 29.86 in 10.0 mi North 6.9 mph - N/A   Partly Cloudy
6:55 PM 27.7 °F - 13.1 °F 54% 29.87 in 10.0 mi Calm Calm - N/A   Clear
7:55 PM 24.3 °F - 12.4 °F 61% 29.86 in 10.0 mi Calm Calm - N/A   Clear
8:55 PM 21.4 °F 15.1 °F 10.4 °F 63% 29.83 in 10.0 mi WNW 4.6 mph - N/A   Partly Cloudy
9:55 PM 19.4 °F 12.8 °F 11.1 °F 70% 29.82 in 10.0 mi NW 4.6 mph - N/A   Clear
10:55 PM 23.5 °F 14.5 °F 13.5 °F 65% 29.78 in 10.0 mi NNW 8.1 mph - N/A   Clear
11:55 PM 25.7 °F 19.0 °F 12.9 °F 58% 29.77 in 10.0 mi NNW 5.8 mph - N/A   Overcast